NKS1006 KLAS-KDFW

Flight info

Callsign NKS1006
Flight time N/A
Altitude 35000
Route NIITZ4 SSKEE DCT GUP J72 TXO DCT TURKI JOVEM6
Aircraft A21N/M-SDE2E3FGHIRWXY/LB1

Departure

Time 2026-05-07 01:06
Airport Harry Reid International Airport (KLAS)

Arrival

Time N/A
Airport Dallas Fort Worth International Airport (KDFW)
Time Latitude Longitude Altitude Speed Heading
2026-05-07 00:30 36.08503 -115.15484 2103 ft 0 kts 56°
2026-05-07 00:45 36.08501 -115.15488 2103 ft 3 kts 57°
2026-05-07 00:45 36.08495 -115.15500 2103 ft 4 kts 60°
2026-05-07 00:45 36.08483 -115.15529 2104 ft 4 kts 70°
2026-05-07 00:46 36.08477 -115.15561 2104 ft 4 kts 95°
2026-05-07 00:46 36.08485 -115.15585 2105 ft 3 kts 152°
2026-05-07 00:46 36.08492 -115.15589 2105 ft 1 kts 155°
2026-05-07 00:50 36.08474 -115.15578 2105 ft 5 kts 155°
2026-05-07 00:51 36.08427 -115.15552 2104 ft 9 kts 155°
2026-05-07 00:51 36.08356 -115.15511 2104 ft 13 kts 155°
2026-05-07 00:51 36.08260 -115.15456 2103 ft 17 kts 155°
2026-05-07 00:51 36.08155 -115.15430 2103 ft 8 kts 194°
2026-05-07 00:52 36.08092 -115.15449 2103 ft 8 kts 186°
2026-05-07 00:52 36.08031 -115.15423 2103 ft 11 kts 153°
2026-05-07 00:52 36.07966 -115.15386 2103 ft 3 kts 155°
2026-05-07 00:52 36.07965 -115.15385 2103 ft 0 kts 155°
2026-05-07 01:00 36.07964 -115.15385 2104 ft 1 kts 155°
2026-05-07 01:00 36.07920 -115.15360 2104 ft 19 kts 155°
2026-05-07 01:00 36.07800 -115.15222 2107 ft 32 kts 87°
2026-05-07 01:01 36.07797 -115.14969 2105 ft 24 kts 95°
2026-05-07 01:01 36.07780 -115.14739 2103 ft 29 kts 95°
2026-05-07 01:01 36.07763 -115.14468 2102 ft 34 kts 94°
2026-05-07 01:01 36.07754 -115.14197 2100 ft 26 kts 91°
2026-05-07 01:02 36.07754 -115.13998 2099 ft 21 kts 90°
2026-05-07 01:02 36.07754 -115.13808 2098 ft 23 kts 90°
2026-05-07 01:02 36.07754 -115.13608 2097 ft 24 kts 90°
2026-05-07 01:02 36.07754 -115.13396 2095 ft 25 kts 90°
2026-05-07 01:03 36.07755 -115.13174 2090 ft 26 kts 90°
2026-05-07 01:03 36.07755 -115.12946 2081 ft 27 kts 90°
2026-05-07 01:03 36.07755 -115.12714 2071 ft 28 kts 90°
2026-05-07 01:03 36.07755 -115.12473 2063 ft 28 kts 90°
2026-05-07 01:04 36.07755 -115.12236 2057 ft 26 kts 90°
2026-05-07 01:04 36.07709 -115.12123 2053 ft 14 kts 173°
2026-05-07 01:04 36.07662 -115.12129 2053 ft 6 kts 204°
2026-05-07 01:04 36.07643 -115.12174 2054 ft 0 kts 267°
2026-05-07 01:05 36.07643 -115.12177 2054 ft 4 kts 266°
2026-05-07 01:05 36.07642 -115.12535 2065 ft 88 kts 270°
2026-05-07 01:05 36.07642 -115.13688 2098 ft 177 kts 269°
2026-05-07 01:06 36.07639 -115.15390 2949 ft 199 kts 270°
2026-05-07 01:06 36.07611 -115.17131 3943 ft 207 kts 269°
2026-05-07 01:06 36.07587 -115.18961 4427 ft 219 kts 269°
2026-05-07 01:06 36.07541 -115.20901 4901 ft 232 kts 265°
2026-05-07 01:07 36.07281 -115.22938 5313 ft 248 kts 260°
2026-05-07 01:07 36.06756 -115.25007 5875 ft 258 kts 240°
2026-05-07 01:07 36.05534 -115.26609 6428 ft 267 kts 211°
2026-05-07 01:07 36.03787 -115.27543 6923 ft 280 kts 199°
2026-05-07 01:08 36.01906 -115.28321 7472 ft 289 kts 198°
2026-05-07 01:08 35.99915 -115.28748 7927 ft 293 kts 177°
2026-05-07 01:08 35.97953 -115.28096 8527 ft 295 kts 150°
2026-05-07 01:08 35.96330 -115.26540 9246 ft 297 kts 136°
2026-05-07 01:09 35.94820 -115.24775 9929 ft 300 kts 135°
2026-05-07 01:09 35.93275 -115.22984 10445 ft 312 kts 136°
2026-05-07 01:09 35.91665 -115.21076 10753 ft 329 kts 130°
2026-05-07 01:09 35.90319 -115.18734 11036 ft 346 kts 119°
2026-05-07 01:10 35.89070 -115.16117 11397 ft 361 kts 118°
2026-05-07 01:10 35.87800 -115.13409 12037 ft 366 kts 116°
2026-05-07 01:10 35.86863 -115.10505 12732 ft 365 kts 99°
2026-05-07 01:10 35.86687 -115.07411 13467 ft 362 kts 84°
2026-05-07 01:11 35.86869 -115.04301 14193 ft 365 kts 82°
2026-05-07 01:11 35.87080 -115.01171 14907 ft 368 kts 82°
2026-05-07 01:11 35.87279 -114.98016 15608 ft 370 kts 83°
2026-05-07 01:11 35.87466 -114.94839 16270 ft 373 kts 83°
2026-05-07 01:12 35.87645 -114.91670 16910 ft 376 kts 83°
2026-05-07 01:12 35.87821 -114.88440 17537 ft 379 kts 83°
2026-05-07 01:12 35.87997 -114.85179 18149 ft 382 kts 83°
2026-05-07 01:12 35.88173 -114.81892 18747 ft 385 kts 83°
2026-05-07 01:13 35.88349 -114.78591 19329 ft 388 kts 83°
2026-05-07 01:13 35.88527 -114.75258 19909 ft 391 kts 83°
2026-05-07 01:13 35.88705 -114.71902 20453 ft 394 kts 83°
2026-05-07 01:13 35.88882 -114.68513 20993 ft 397 kts 83°
2026-05-07 01:14 35.89061 -114.65106 21504 ft 400 kts 83°
2026-05-07 01:14 35.89240 -114.61663 22003 ft 403 kts 83°
2026-05-07 01:14 35.89417 -114.58254 22504 ft 404 kts 83°
2026-05-07 01:14 35.89595 -114.54776 22974 ft 407 kts 83°
2026-05-07 01:15 35.89698 -114.51259 23431 ft 412 kts 87°
2026-05-07 01:15 35.89690 -114.47716 23874 ft 415 kts 87°
2026-05-07 01:15 35.89671 -114.44141 24310 ft 417 kts 87°
2026-05-07 01:15 35.89650 -114.40557 24772 ft 420 kts 87°
2026-05-07 01:16 35.89628 -114.36943 25217 ft 422 kts 87°
2026-05-07 01:16 35.89607 -114.33314 25660 ft 424 kts 87°
2026-05-07 01:16 35.89585 -114.29713 26068 ft 426 kts 87°
2026-05-07 01:16 35.89559 -114.26049 26482 ft 428 kts 86°
2026-05-07 01:17 35.89533 -114.22372 26891 ft 430 kts 86°
2026-05-07 01:17 35.89508 -114.18671 27273 ft 432 kts 86°
2026-05-07 01:17 35.89484 -114.14958 27656 ft 434 kts 86°
2026-05-07 01:17 35.89455 -114.11229 28018 ft 435 kts 86°
2026-05-07 01:18 35.89422 -114.07483 28393 ft 437 kts 86°
2026-05-07 01:18 35.89392 -114.03765 28749 ft 438 kts 86°
2026-05-07 01:18 35.89361 -113.99999 29082 ft 440 kts 86°
2026-05-07 01:18 35.89331 -113.96213 29404 ft 441 kts 86°
2026-05-07 01:19 35.89294 -113.92423 29823 ft 440 kts 86°
2026-05-07 01:19 35.89256 -113.88657 30231 ft 438 kts 86°
2026-05-07 01:19 35.89219 -113.84907 30630 ft 437 kts 86°
2026-05-07 01:19 35.89181 -113.81307 30980 ft 436 kts 86°
2026-05-07 01:20 35.89145 -113.77564 31336 ft 435 kts 86°
2026-05-07 01:20 35.89110 -113.73885 31662 ft 435 kts 86°
2026-05-07 01:20 35.89070 -113.70155 31961 ft 435 kts 86°
2026-05-07 01:20 35.89029 -113.66409 32289 ft 434 kts 85°
2026-05-07 01:21 35.88988 -113.62690 32604 ft 432 kts 85°
2026-05-07 01:21 35.88943 -113.58981 32825 ft 432 kts 86°
2026-05-07 01:21 35.88893 -113.55277 33053 ft 433 kts 86°
2026-05-07 01:21 35.88623 -113.51560 33305 ft 437 kts 94°
2026-05-07 01:22 35.88122 -113.47907 33553 ft 437 kts 95°
2026-05-07 01:22 35.87583 -113.44223 33792 ft 437 kts 95°
2026-05-07 01:22 35.87043 -113.40534 34009 ft 437 kts 95°
2026-05-07 01:22 35.86506 -113.36841 34230 ft 437 kts 95°
2026-05-07 01:23 35.85973 -113.33148 34451 ft 436 kts 95°
2026-05-07 01:23 35.85439 -113.29457 34677 ft 436 kts 95°
2026-05-07 01:23 35.84907 -113.25763 34885 ft 437 kts 95°
2026-05-07 01:23 35.84380 -113.22126 35078 ft 437 kts 95°
2026-05-07 01:24 35.83843 -113.18438 35155 ft 437 kts 95°
2026-05-07 01:24 35.82769 -113.11077 35141 ft 436 kts 95°
2026-05-07 01:25 35.81691 -113.03707 35135 ft 437 kts 95°
2026-05-07 01:25 35.80604 -112.96322 35153 ft 437 kts 95°
2026-05-07 01:26 35.79519 -112.88985 35159 ft 437 kts 95°
2026-05-07 01:26 35.78423 -112.81595 35165 ft 438 kts 95°
2026-05-07 01:27 35.77327 -112.74246 35169 ft 438 kts 95°
2026-05-07 01:27 35.76221 -112.66844 35170 ft 438 kts 95°
2026-05-07 01:28 35.75114 -112.59463 35178 ft 438 kts 95°
2026-05-07 01:28 35.74016 -112.52129 35199 ft 438 kts 95°
2026-05-07 01:28 35.73462 -112.48437 35081 ft 437 kts 95°
2026-05-07 01:29 35.72908 -112.44768 35268 ft 435 kts 95°
2026-05-07 01:29 35.72352 -112.41089 35062 ft 437 kts 95°
2026-05-07 01:29 35.71792 -112.37401 35131 ft 439 kts 95°
2026-05-07 01:30 35.70676 -112.30067 35191 ft 438 kts 95°
2026-05-07 01:30 35.69547 -112.22696 35182 ft 438 kts 95°
2026-05-07 01:31 35.68415 -112.15317 35186 ft 438 kts 95°
2026-05-07 01:31 35.67276 -112.07952 35188 ft 438 kts 95°
2026-05-07 01:32 35.66137 -112.00594 35191 ft 438 kts 95°
2026-05-07 01:32 35.65001 -111.93249 35191 ft 440 kts 96°
2026-05-07 01:33 35.63841 -111.85858 35190 ft 441 kts 96°
2026-05-07 01:33 35.63121 -111.78466 35191 ft 436 kts 88°
2026-05-07 01:34 35.62829 -111.71011 35191 ft 437 kts 88°
2026-05-07 01:34 35.62523 -111.63546 35188 ft 438 kts 88°
2026-05-07 01:35 35.62199 -111.56039 35172 ft 439 kts 89°
2026-05-07 01:35 35.61863 -111.48520 35170 ft 440 kts 89°
2026-05-07 01:36 35.61548 -111.41139 35165 ft 442 kts 89°
2026-05-07 01:36 35.61214 -111.33573 35166 ft 443 kts 89°
2026-05-07 01:37 35.60870 -111.25982 35161 ft 445 kts 89°
2026-05-07 01:37 35.60524 -111.18422 35158 ft 446 kts 90°
2026-05-07 01:38 35.60168 -111.10792 35151 ft 448 kts 90°
2026-05-07 01:38 35.59807 -111.03125 35145 ft 449 kts 90°
2026-05-07 01:39 35.59441 -110.95495 35140 ft 450 kts 90°
2026-05-07 01:39 35.59069 -110.87810 35139 ft 450 kts 90°
2026-05-07 01:40 35.58690 -110.80165 35127 ft 451 kts 90°
2026-05-07 01:40 35.58304 -110.72471 35130 ft 451 kts 90°
2026-05-07 01:41 35.57915 -110.64766 35118 ft 451 kts 90°
2026-05-07 01:41 35.57588 -110.58368 35112 ft 451 kts 90°
2026-05-07 01:42 35.57193 -110.50676 35103 ft 450 kts 90°
2026-05-07 01:42 35.56790 -110.42998 35101 ft 450 kts 90°
2026-05-07 01:43 35.56390 -110.35411 35102 ft 449 kts 89°
2026-05-07 01:43 35.55980 -110.27753 35111 ft 448 kts 89°
2026-05-07 01:44 35.55568 -110.20139 35111 ft 448 kts 89°
2026-05-07 01:44 35.55148 -110.12495 35107 ft 448 kts 89°
2026-05-07 01:45 35.54728 -110.04862 35116 ft 447 kts 89°
2026-05-07 01:45 35.54304 -109.97287 35122 ft 447 kts 89°
2026-05-07 01:46 35.53869 -109.89612 35131 ft 452 kts 90°
2026-05-07 01:46 35.53427 -109.81891 35133 ft 453 kts 90°
2026-05-07 01:47 35.52980 -109.74163 35143 ft 455 kts 90°
2026-05-07 01:47 35.52526 -109.66417 35134 ft 457 kts 91°
2026-05-07 01:48 35.52062 -109.58598 35154 ft 459 kts 91°
2026-05-07 01:48 35.51595 -109.50798 35158 ft 461 kts 91°
2026-05-07 01:49 35.51117 -109.42907 35160 ft 464 kts 92°
2026-05-07 01:49 35.50630 -109.34965 35158 ft 467 kts 92°
2026-05-07 01:50 35.50143 -109.27103 35160 ft 471 kts 93°
2026-05-07 01:50 35.49639 -109.19053 35161 ft 473 kts 93°
2026-05-07 01:51 35.49129 -109.11022 35160 ft 476 kts 94°
2026-05-07 01:51 35.48612 -109.02893 35160 ft 479 kts 94°
2026-05-07 01:52 35.48086 -108.94731 35160 ft 481 kts 94°
2026-05-07 01:52 35.47430 -108.86515 35158 ft 483 kts 101°
2026-05-07 01:53 35.45850 -108.78546 35161 ft 484 kts 105°
2026-05-07 01:53 35.44210 -108.70515 35160 ft 485 kts 105°
2026-05-07 01:54 35.42570 -108.62464 35159 ft 487 kts 105°
2026-05-07 01:54 35.40928 -108.54391 35160 ft 488 kts 105°
2026-05-07 01:55 35.39293 -108.46360 35161 ft 488 kts 105°
2026-05-07 01:55 35.37635 -108.38273 35161 ft 489 kts 105°
2026-05-07 01:56 35.35977 -108.30185 35169 ft 489 kts 106°
2026-05-07 01:56 35.34326 -108.22140 35170 ft 490 kts 106°
2026-05-07 01:57 35.32657 -108.14062 35178 ft 490 kts 106°
2026-05-07 01:57 35.30983 -108.06007 35180 ft 490 kts 106°
2026-05-07 01:58 35.29319 -107.98029 35186 ft 491 kts 107°
2026-05-07 01:58 35.27607 -107.89862 35189 ft 498 kts 108°
2026-05-07 01:59 35.25888 -107.81672 35191 ft 500 kts 108°
2026-05-07 01:59 35.24155 -107.73429 35198 ft 501 kts 108°
2026-05-07 02:00 35.22409 -107.65171 35193 ft 502 kts 108°
2026-05-07 02:00 35.20666 -107.56939 35193 ft 503 kts 109°
2026-05-07 02:01 35.18895 -107.48651 35186 ft 504 kts 109°
2026-05-07 02:01 35.17115 -107.40319 35180 ft 506 kts 109°
2026-05-07 02:02 35.15334 -107.32040 35176 ft 507 kts 110°
2026-05-07 02:02 35.13535 -107.23704 35168 ft 508 kts 110°
2026-05-07 02:03 35.11729 -107.15340 35154 ft 509 kts 110°
2026-05-07 02:03 35.09910 -107.06967 35151 ft 510 kts 110°
2026-05-07 02:04 35.08090 -106.98624 35142 ft 512 kts 110°
2026-05-07 02:04 35.06256 -106.90220 35146 ft 512 kts 111°
2026-05-07 02:05 35.04446 -106.81804 35136 ft 515 kts 108°
2026-05-07 02:05 35.03316 -106.73099 35138 ft 519 kts 103°
2026-05-07 02:06 35.02279 -106.64402 35128 ft 520 kts 104°
2026-05-07 02:06 35.01209 -106.55653 35121 ft 521 kts 104°
2026-05-07 02:07 35.00136 -106.46962 35122 ft 521 kts 104°
2026-05-07 02:07 34.98502 -106.33833 35134 ft 522 kts 104°
2026-05-07 02:08 34.97405 -106.25076 35148 ft 522 kts 104°
2026-05-07 02:08 34.96303 -106.16339 35161 ft 523 kts 105°
2026-05-07 02:09 34.95192 -106.07562 35172 ft 524 kts 105°
2026-05-07 02:09 34.94068 -105.98770 35180 ft 525 kts 105°
2026-05-07 02:10 34.92934 -105.89976 35180 ft 529 kts 106°
2026-05-07 02:10 34.91782 -105.81082 35182 ft 531 kts 106°
2026-05-07 02:11 34.90629 -105.72183 35190 ft 531 kts 106°
2026-05-07 02:11 34.89475 -105.63335 35189 ft 532 kts 106°
2026-05-07 02:12 34.88306 -105.54443 35192 ft 532 kts 106°
2026-05-07 02:12 34.87128 -105.45544 35189 ft 532 kts 106°
2026-05-07 02:13 34.85941 -105.36625 35181 ft 533 kts 106°
2026-05-07 02:13 34.84756 -105.27744 35173 ft 533 kts 107°
2026-05-07 02:14 34.83551 -105.18821 35168 ft 534 kts 107°
2026-05-07 02:14 34.82349 -105.09925 35161 ft 534 kts 107°
2026-05-07 02:15 34.81128 -105.00991 35152 ft 535 kts 107°
2026-05-07 02:15 34.79906 -104.92043 35150 ft 536 kts 107°
2026-05-07 02:16 34.78677 -104.83130 35143 ft 536 kts 107°
2026-05-07 02:16 34.77436 -104.74172 35144 ft 537 kts 107°
2026-05-07 02:17 34.76196 -104.65186 35141 ft 538 kts 107°
2026-05-07 02:17 34.74943 -104.56191 35134 ft 539 kts 108°
2026-05-07 02:18 34.73662 -104.47234 35143 ft 540 kts 108°
2026-05-07 02:18 34.72384 -104.38218 35131 ft 541 kts 108°
2026-05-07 02:19 34.71105 -104.29247 35132 ft 541 kts 108°
2026-05-07 02:19 34.69820 -104.20215 35123 ft 542 kts 108°
2026-05-07 02:20 34.68524 -104.11233 35122 ft 541 kts 109°
2026-05-07 02:20 34.67214 -104.02224 35112 ft 541 kts 108°
2026-05-07 02:21 34.65930 -103.93192 35105 ft 543 kts 109°
2026-05-07 02:21 34.64613 -103.84135 35101 ft 544 kts 109°
2026-05-07 02:22 34.63282 -103.75089 35093 ft 544 kts 109°
2026-05-07 02:22 34.61980 -103.66250 35079 ft 544 kts 109°
2026-05-07 02:23 34.60633 -103.57202 35064 ft 544 kts 109°
2026-05-07 02:23 34.59286 -103.48145 35053 ft 544 kts 109°
2026-05-07 02:24 34.57942 -103.39150 35041 ft 544 kts 109°
2026-05-07 02:24 34.56588 -103.30118 35033 ft 543 kts 109°
2026-05-07 02:25 34.55233 -103.21139 35051 ft 543 kts 110°
2026-05-07 02:25 34.53865 -103.12110 35067 ft 543 kts 110°
2026-05-07 02:26 34.52474 -103.03107 35077 ft 542 kts 110°
2026-05-07 02:26 34.51181 -102.94817 35091 ft 542 kts 110°
2026-05-07 02:27 34.49794 -102.85832 35098 ft 542 kts 110°
2026-05-07 02:27 34.48765 -102.76708 35101 ft 547 kts 106°
2026-05-07 02:28 34.47845 -102.67610 35108 ft 546 kts 106°
2026-05-07 02:28 34.46905 -102.58449 35111 ft 546 kts 106°
2026-05-07 02:29 34.45957 -102.49307 35123 ft 546 kts 106°
2026-05-07 02:29 34.45013 -102.40256 35140 ft 545 kts 107°
2026-05-07 02:30 34.44061 -102.31194 35141 ft 545 kts 107°
2026-05-07 02:30 34.43095 -102.22085 35145 ft 545 kts 107°
2026-05-07 02:31 34.42123 -102.12975 35139 ft 544 kts 107°
2026-05-07 02:31 34.41154 -102.03932 35132 ft 543 kts 107°
2026-05-07 02:32 34.40170 -101.94848 35125 ft 544 kts 107°
2026-05-07 02:32 34.39212 -101.86048 35119 ft 544 kts 107°
2026-05-07 02:33 34.38386 -101.78491 35112 ft 544 kts 107°
2026-05-07 02:33 34.37383 -101.69416 35109 ft 543 kts 107°
2026-05-07 02:34 34.36371 -101.60325 35110 ft 544 kts 107°
2026-05-07 02:34 34.35353 -101.51232 35102 ft 545 kts 107°
2026-05-07 02:35 34.34335 -101.42198 35100 ft 546 kts 107°
2026-05-07 02:35 34.33299 -101.33072 35105 ft 546 kts 107°
2026-05-07 02:36 34.32257 -101.23958 35111 ft 547 kts 107°
2026-05-07 02:36 34.31204 -101.14816 35109 ft 548 kts 107°
2026-05-07 02:37 34.30154 -101.05739 35104 ft 548 kts 107°
2026-05-07 02:37 34.29089 -100.96595 35099 ft 549 kts 107°
2026-05-07 02:38 34.28014 -100.87425 35098 ft 550 kts 107°
2026-05-07 02:38 34.26933 -100.78267 35101 ft 550 kts 107°
2026-05-07 02:39 34.25849 -100.69161 35099 ft 550 kts 107°
2026-05-07 02:39 34.24752 -100.59992 35099 ft 551 kts 107°
2026-05-07 02:40 34.23644 -100.50803 35101 ft 552 kts 107°
2026-05-07 02:40 34.22533 -100.41629 35094 ft 552 kts 107°
2026-05-07 02:41 34.21419 -100.32501 35096 ft 551 kts 107°
2026-05-07 02:41 34.19978 -100.23468 35087 ft 535 kts 119°
2026-05-07 02:42 34.17475 -100.15064 35094 ft 530 kts 122°
2026-05-07 02:42 34.14934 -100.06751 35094 ft 531 kts 122°
2026-05-07 02:43 34.12401 -99.98378 35084 ft 531 kts 122°
2026-05-07 02:43 34.09864 -99.90002 35098 ft 531 kts 122°
2026-05-07 02:44 34.07280 -99.81682 35102 ft 528 kts 123°
2026-05-07 02:44 34.04643 -99.73440 35099 ft 530 kts 122°
2026-05-07 02:45 34.02079 -99.65091 35100 ft 530 kts 122°
2026-05-07 02:45 33.99524 -99.56737 35102 ft 530 kts 122°
2026-05-07 02:46 33.96974 -99.48483 35105 ft 529 kts 122°
2026-05-07 02:46 33.94392 -99.40172 35111 ft 528 kts 122°
2026-05-07 02:47 33.91828 -99.31956 35111 ft 526 kts 122°
2026-05-07 02:47 33.89255 -99.23701 35108 ft 526 kts 122°
2026-05-07 02:48 33.86678 -99.15470 35101 ft 525 kts 122°
2026-05-07 02:48 33.84087 -99.07230 35101 ft 526 kts 122°
2026-05-07 02:49 33.81611 -98.99352 35093 ft 525 kts 122°
2026-05-07 02:49 33.80318 -98.95261 35100 ft 525 kts 122°
2026-05-07 02:50 33.77729 -98.87051 35102 ft 525 kts 122°
2026-05-07 02:50 33.75127 -98.78836 35104 ft 525 kts 122°
2026-05-07 02:51 33.72530 -98.70676 35110 ft 526 kts 122°
2026-05-07 02:51 33.69934 -98.62462 35108 ft 525 kts 122°
2026-05-07 02:52 33.68645 -98.58381 34648 ft 520 kts 122°
2026-05-07 02:52 33.67356 -98.54315 33875 ft 520 kts 123°
2026-05-07 02:52 33.66060 -98.50244 33056 ft 520 kts 123°
2026-05-07 02:52 33.64765 -98.46193 32233 ft 521 kts 122°
2026-05-07 02:53 33.63484 -98.42179 31468 ft 522 kts 122°
2026-05-07 02:53 33.62181 -98.38112 30732 ft 522 kts 121°
2026-05-07 02:53 33.60882 -98.34055 30034 ft 521 kts 121°
2026-05-07 02:53 33.59583 -98.29998 29289 ft 520 kts 121°
2026-05-07 02:54 33.58297 -98.25968 28571 ft 519 kts 120°
2026-05-07 02:54 33.57001 -98.21924 27860 ft 517 kts 120°
2026-05-07 02:54 33.55715 -98.17919 27155 ft 513 kts 120°
2026-05-07 02:54 33.54451 -98.13990 26434 ft 508 kts 120°
2026-05-07 02:55 33.53183 -98.10050 25750 ft 503 kts 120°
2026-05-07 02:55 33.51929 -98.06164 25136 ft 496 kts 119°
2026-05-07 02:55 33.50686 -98.02318 24445 ft 491 kts 119°
2026-05-07 02:55 33.49456 -97.98520 23756 ft 486 kts 119°
2026-05-07 02:56 33.48242 -97.94781 23187 ft 478 kts 119°
2026-05-07 02:56 33.47046 -97.91091 22499 ft 473 kts 119°
2026-05-07 02:56 33.45860 -97.87429 21773 ft 469 kts 118°
2026-05-07 02:56 33.44712 -97.83851 21203 ft 462 kts 118°
2026-05-07 02:57 33.43559 -97.80261 20522 ft 458 kts 118°
2026-05-07 02:57 33.42409 -97.76700 19854 ft 455 kts 118°
2026-05-07 02:57 33.41282 -97.73221 19237 ft 450 kts 118°
2026-05-07 02:57 33.40161 -97.69746 18651 ft 444 kts 117°
2026-05-07 02:58 33.39048 -97.66319 18086 ft 438 kts 118°
2026-05-07 02:58 33.37675 -97.63153 17519 ft 419 kts 134°
2026-05-07 02:58 33.37074 -97.62237 17332 ft 411 kts 140°